Date String (YYYY-MM-DD hh:mm:ss) UTC,Instrument flags,absolute air pressure of the measurement (hPa),sample flow rate (lpm),inlet stack bypass flow (lpm),air temperature of the measurement (°C),ambient temperature measured by the external sensor (°C),aerosol sample conditioner tube jacket temperature (°C),OPC LED temperature (°C),internal box temperature (°C),relative humidity of the measurement (%),span deviation,mass concentration of particles derived from Lorenz-Mie calculation of OPC scattering (μg/m³),mass concentration of particles derived from Lorenz-Mie calculation of OPC scattering (μg/m³),mass concentration of particles derived from Lorenz-Mie calculation of OPC scattering (μg/m³)
DateTimeUTC,F1_M11,P_M11,Q1_M11,Q2_M11,T1_M11,T2_M11,T3_M11,T4_M11,T5_M11,U1_M11,ZSPAN_M11,X0_M11,X2_M11,X1_M11
2023-11-05 18:00:00,SystemResetWarning,0826.0,5.00,000.00,027.8,026.3,000.0,036.1,029.2,8.2,0000.0,0005.11,0002.29,0001.95
2023-11-05 18:01:00,SystemResetWarning,0826.0,4.99,000.00,027.8,026.5,000.0,036.1,029.3,8.3,0000.0,0005.19,0002.32,0001.96
2023-11-05 18:02:00,SystemResetWarning,0825.9,5.00,000.00,027.8,026.6,000.0,036.1,029.3,8.2,0000.0,0004.63,0002.31,0001.94
2023-11-05 18:03:00,SystemResetWarning,0825.9,5.00,000.00,027.9,026.7,000.0,036.1,029.4,8.4,0000.0,0004.75,0002.31,0001.94
2023-11-05 18:04:00,SystemResetWarning,0825.7,5.00,000.00,027.9,026.8,000.0,036.2,029.4,8.4,0000.0,0004.88,0002.34,0001.94
2023-11-05 18:05:00,SystemResetWarning,0825.8,5.00,000.00,027.9,026.9,000.0,036.2,029.4,8.3,0000.0,0006.55,0002.35,0001.94
2023-11-05 18:06:00,SystemResetWarning,0825.8,5.00,000.00,027.9,027.0,000.0,036.2,029.4,8.3,0000.0,0008.84,0002.34,0001.92
2023-11-05 18:07:00,SystemResetWarning,0825.8,5.02,000.00,028.0,027.1,000.0,036.2,029.5,8.3,0000.0,0009.43,0002.36,0001.91
2023-11-05 18:08:00,SystemResetWarning,0825.9,5.00,000.00,028.0,027.1,000.0,036.2,029.5,8.4,0000.0,0009.97,0002.37,0001.90
2023-11-05 18:09:00,SystemResetWarning,0825.8,4.99,000.00,028.1,027.2,000.0,036.2,029.5,8.3,0000.0,0010.36,0002.42,0001.90
2023-11-05 18:10:00,SystemResetWarning,0825.9,4.99,000.00,028.1,027.2,000.0,036.2,029.6,8.4,0000.0,0010.38,0002.43,0001.92
2023-11-05 18:11:00,SystemResetWarning,0825.8,5.00,000.00,028.1,027.3,000.0,036.3,029.6,8.4,0000.0,0010.48,0002.47,0001.92
2023-11-05 18:12:00,SystemResetWarning,0825.8,4.99,000.00,028.1,026.4,000.0,036.3,029.6,8.6,0000.0,0010.47,0002.44,0001.91
2023-11-05 18:13:00,SystemResetWarning,0825.8,5.02,000.00,028.0,024.8,000.0,036.2,029.2,8.5,0000.0,0011.18,0002.46,0001.91
2023-11-05 18:14:00,SystemResetWarning,0825.9,5.00,000.00,027.9,024.3,000.0,036.2,029.1,8.7,0000.0,0011.16,0002.48,0001.89
2023-11-05 18:15:00,SystemResetWarning,0825.9,4.99,000.00,027.8,024.6,000.0,036.1,028.8,8.6,0000.0,0011.19,0002.46,0001.88
2023-11-05 18:16:00,SystemResetWarning,0825.7,4.99,000.00,027.7,025.0,000.0,036.1,028.7,8.8,0000.0,0010.98,0002.46,0001.87
2023-11-05 18:17:00,SystemResetWarning,0825.7,5.01,000.00,027.7,025.3,000.0,036.1,028.8,8.8,0000.0,0008.36,0002.44,0001.87
2023-11-05 18:18:00,SystemResetWarning,0825.6,5.01,000.00,027.7,025.6,000.0,036.0,028.9,8.9,0000.0,0007.01,0002.39,0001.87
2023-11-05 18:19:00,SystemResetWarning,0825.7,4.98,000.00,027.7,025.9,000.0,036.0,029.0,8.8,0000.0,0006.00,0002.39,0001.86
2023-11-05 18:20:00,SystemResetWarning,0825.7,5.00,000.00,027.7,026.1,000.0,036.0,029.1,8.9,0000.0,0004.96,0002.37,0001.85
2023-11-05 18:21:00,SystemResetWarning,0825.7,5.01,000.00,027.7,026.3,000.0,036.0,029.1,8.9,0000.0,0004.93,0002.35,0001.84
2023-11-05 18:22:00,SystemResetWarning,0825.8,5.00,000.00,027.7,026.4,000.0,036.0,029.2,8.8,0000.0,0004.83,0002.34,0001.82
2023-11-05 18:23:00,SystemResetWarning,0825.8,5.00,000.00,027.8,026.6,000.0,036.0,029.3,8.9,0000.0,0004.73,0002.31,0001.81
2023-11-05 18:24:00,SystemResetWarning,0825.8,5.00,000.00,027.8,026.7,000.0,036.0,029.3,9.1,0000.0,0003.55,0002.27,0001.80
2023-11-05 18:25:00,SystemResetWarning,0825.8,5.00,000.00,027.8,026.8,000.0,036.0,029.4,9.0,0000.0,0003.17,0002.23,0001.80
2023-11-05 18:26:00,SystemResetWarning,0825.7,5.00,000.00,027.9,026.9,000.0,036.1,029.4,8.8,0000.0,0003.05,0002.21,0001.81
2023-11-05 18:27:00,SystemResetWarning,0825.8,5.01,000.00,027.9,027.0,000.0,036.1,029.5,8.9,0000.0,0003.28,0002.15,0001.80
2023-11-05 18:28:00,SystemResetWarning,0825.8,5.00,000.00,027.9,027.1,000.0,036.1,029.5,8.8,0000.0,0003.69,0002.12,0001.78
2023-11-05 18:29:00,SystemResetWarning,0825.8,4.99,000.00,028.0,027.2,000.0,036.1,029.6,8.9,0000.0,0003.75,0002.10,0001.78
2023-11-05 18:30:00,SystemResetWarning,0825.8,4.99,000.00,028.0,027.2,000.0,036.1,029.6,8.9,0000.0,0003.64,0002.06,0001.79
2023-11-05 18:31:00,SystemResetWarning,0825.6,5.01,000.00,028.1,027.3,000.0,036.2,029.7,9.0,0000.0,0003.52,0002.01,0001.79
2023-11-05 18:32:00,SystemResetWarning,0825.5,4.99,000.00,028.1,026.8,000.0,036.2,029.7,8.9,0000.0,0003.45,0001.98,0001.78
2023-11-05 18:33:00,SystemResetWarning,0825.6,5.00,000.00,028.0,024.9,000.0,036.2,029.4,8.9,0000.0,0003.53,0001.99,0001.78
2023-11-05 18:34:00,SystemResetWarning,0825.5,5.01,000.00,027.9,024.1,000.0,036.1,029.2,8.9,0000.0,0003.77,0002.05,0001.80
2023-11-05 18:35:00,SystemResetWarning,0825.7,5.01,000.00,027.8,024.5,000.0,036.1,029.0,9.0,0000.0,0003.97,0002.12,0001.80
2023-11-05 18:36:00,SystemResetWarning,0825.6,4.99,000.00,027.7,024.8,000.0,036.1,028.8,9.2,0000.0,0004.12,0002.15,0001.79
2023-11-05 18:37:00,SystemResetWarning,0825.5,4.99,000.00,027.7,025.2,000.0,036.0,028.9,9.0,0000.0,0004.22,0002.16,0001.78
2023-11-05 18:38:00,SystemResetWarning,0825.6,5.00,000.00,027.7,025.6,000.0,036.0,029.0,9.2,0000.0,0004.21,0002.17,0001.77
2023-11-05 18:39:00,SystemResetWarning,0825.6,5.00,000.00,027.7,025.9,000.0,036.0,029.1,9.1,0000.0,0003.58,0002.18,0001.78
2023-11-05 18:40:00,SystemResetWarning,0825.6,5.01,000.00,027.7,026.2,000.0,036.0,029.2,9.1,0000.0,0003.27,0002.17,0001.76
2023-11-05 18:41:00,SystemResetWarning,0825.5,5.00,000.00,027.7,026.4,000.0,036.0,029.2,9.1,0000.0,0003.62,0002.15,0001.75
2023-11-05 18:42:00,SystemResetWarning,0825.4,5.00,000.00,027.8,026.5,000.0,036.0,029.3,9.1,0000.0,0004.21,0002.19,0001.75
2023-11-05 18:43:00,SystemResetWarning,0825.4,5.00,000.00,027.8,026.7,000.0,036.0,029.3,9.1,0000.0,0004.26,0002.20,0001.75
2023-11-05 18:44:00,SystemResetWarning,0825.4,5.01,000.00,027.8,026.8,000.0,036.0,029.4,9.1,0000.0,0005.86,0002.19,0001.74
2023-11-05 18:45:00,SystemResetWarning,0825.3,5.00,000.00,027.9,026.9,000.0,036.0,029.5,9.0,0000.0,0005.89,0002.13,0001.72
2023-11-05 18:46:00,SystemResetWarning,0825.3,5.00,000.00,027.9,027.1,000.0,036.1,029.5,9.0,0000.0,0005.73,0002.08,0001.71
2023-11-05 18:47:00,SystemResetWarning,0825.3,4.98,000.00,028.0,027.1,000.0,036.1,029.6,9.0,0000.0,0005.51,0002.02,0001.71
2023-11-05 18:48:00,SystemResetWarning,0825.2,4.99,000.00,028.0,025.7,000.0,036.1,029.5,8.9,0000.0,0005.36,0001.99,0001.71
2023-11-05 18:49:00,SystemResetWarning,0825.2,5.00,000.00,027.9,024.2,000.0,036.0,029.2,8.8,0000.0,0005.30,0001.97,0001.70
2023-11-05 18:50:00,SystemResetWarning,0825.2,5.01,000.00,027.8,024.3,000.0,036.0,029.0,9.1,0000.0,0005.45,0001.99,0001.70
2023-11-05 18:51:00,SystemResetWarning,0825.1,5.01,000.00,027.7,024.6,000.0,036.0,028.8,9.2,0000.0,0005.47,0001.99,0001.70
2023-11-05 18:52:00,SystemResetWarning,0825.1,5.00,000.00,027.6,025.1,000.0,035.9,028.8,9.3,0000.0,0005.29,0002.00,0001.69
2023-11-05 18:53:00,SystemResetWarning,0825.1,5.00,000.00,027.6,025.4,000.0,035.9,028.9,9.1,0000.0,0004.56,0001.96,0001.68
2023-11-05 18:54:00,SystemResetWarning,0825.1,5.00,000.00,027.6,025.8,000.0,035.9,029.0,9.2,0000.0,0004.53,0001.94,0001.67
2023-11-05 18:55:00,SystemResetWarning,0825.0,4.99,000.00,027.6,026.0,000.0,035.9,029.1,9.2,0000.0,0003.26,0001.92,0001.66
2023-11-05 18:56:00,SystemResetWarning,0824.9,5.00,000.00,027.7,026.2,000.0,035.9,029.1,9.0,0000.0,0002.57,0001.92,0001.65
2023-11-05 18:57:00,SystemResetWarning,0824.9,5.02,000.00,027.7,026.4,000.0,035.9,029.2,9.0,0000.0,0002.56,0001.89,0001.63
2023-11-05 18:58:00,SystemResetWarning,0824.9,5.01,000.00,027.7,026.6,000.0,035.9,029.3,9.0,0000.0,0002.54,0001.88,0001.61
2023-11-05 18:59:00,SystemResetWarning,0824.9,4.99,000.00,027.8,026.7,000.0,035.9,029.3,9.1,0000.0,0003.02,0001.88,0001.59
